W3ADC Weather Reports


time (UTC)temp
F
wind
direction
speed
knots
gust
knots
rain 1hr
in
rain 24hr
in
rain mn
in
humidity
%
barometer
mb
20260507121042 50 5 4.3 10.4 0.00 0.33 0.02 55 1011.7
20260507120541 50 286 4.3 10.4 0.00 0.33 0.02 56 1011.6
20260507120054 50 303 2.6 7.8 0.00 0.33 0.02 57 1011.7
20260507115542 50 22 3.5 7.8 0.00 0.33 0.02 57 1011.7
20260507115041 50 308 2.6 7.8 0.00 0.33 0.02 58 1011.7
20260507114556 50 300 1.7 9.6 0.00 0.33 0.02 58 1011.7
20260507114042 50 331 3.5 9.6 0.00 0.33 0.02 58 1011.7
20260507113540 50 0 2.6 7.8 0.00 0.33 0.02 59 1011.7
20260507113058 50 319 2.6 7.8 0.00 0.33 0.02 60 1011.7
20260507112542 50 304 3.5 8.7 0.00 0.33 0.02 61 1011.7
20260507112042 50 335 4.3 8.7 0.00 0.33 0.02 61 1011.4
20260507111600 50 297 3.5 7.8 0.00 0.33 0.02 62 1011.3
20260507111039 50 338 3.5 8.7 0.00 0.33 0.02 62 1011.2
20260507110541 50 319 2.6 8.7 0.00 0.33 0.02 64 1011.1
20260507110056 50 346 2.6 5.2 0.00 0.33 0.02 66 1011.1
20260507105541 49 331 1.7 4.3 0.00 0.33 0.02 69 1011.1
20260507105041 50 340 0.9 3.5 0.00 0.33 0.02 69 1011.1
20260507104555 50 329 0.9 2.6 0.00 0.33 0.02 69 1011.1
20260507104040 50 348 0.0 1.7 0.00 0.33 0.02 68 1011.2
20260507103542 49 348 0.0 2.6 0.00 0.33 0.02 67 1011.2
20260507103052 49 0 0.9 2.6 0.00 0.33 0.02 68 1011.1
20260507102541 50 13 0.0 3.5 0.00 0.33 0.02 68 1010.7
20260507102041 50 0 0.9 3.5 0.00 0.33 0.02 67 1010.6
20260507101602 50 355 0.9 3.5 0.00 0.33 0.02 68 1010.6
20260507101040 49 298 1.7 4.3 0.00 0.33 0.02 68 1010.4
20260507100541 49 0 0.9 4.3 0.00 0.33 0.02 70 1010.6
20260507100052 49 0 0.9 2.6 0.00 0.33 0.02 72 1010.4
20260507095542 49 0 0.0 2.6 0.00 0.33 0.02 72 1010.5
20260507095042 49 23 0.0 2.6 0.00 0.33 0.02 71 1010.4
20260507094552 50 0 0.9 2.6 0.00 0.33 0.02 71 1010.4
20260507094040 50 0 0.0 2.6 0.00 0.33 0.02 72 1010.6
20260507093540 50 0 0.0 2.6 0.00 0.33 0.02 73 1010.5
20260507093051 50 15 0.9 1.7 0.00 0.33 0.02 73 1010.6
20260507092540 50 0 0.0 1.7 0.00 0.33 0.02 74 1010.5
20260507092042 50 87 0.0 2.6 0.00 0.33 0.02 74 1010.4
20260507091552 50 0 0.0 2.6 0.00 0.33 0.02 74 1010.4
20260507091042 50 0 0.0 1.7 0.00 0.33 0.02 73 1010.4
20260507090541 50 27 0.0 2.6 0.00 0.33 0.02 73 1010.3
20260507090111 50 59 0.9 3.5 0.00 0.33 0.02 73 1010.3
20260507085545 50 0 0.9 4.3 0.00 0.33 0.02 73 1010.2
20260507085042 50 0 0.9 5.2 0.00 0.33 0.02 73 1010.2
20260507084555 50 89 1.7 7.0 0.00 0.33 0.02 73 1010.3
20260507084041 50 299 2.6 7.0 0.00 0.33 0.02 75 1010.3
20260507083541 50 338 2.6 9.6 0.00 0.33 0.02 76 1010.2
20260507083050 50 5 3.5 9.6 0.00 0.33 0.02 79 1010.1
20260507082540 50 9 3.5 9.6 0.00 0.33 0.02 82 1010.1
20260507082042 50 26 2.6 7.0 0.00 0.33 0.02 85 1010.1
20260507081549 50 44 1.7 4.3 0.00 0.33 0.02 87 1009.9
20260507081042 51 315 1.7 7.0 0.00 0.33 0.02 88 1009.8
20260507080541 51 298 1.7 7.8 0.00 0.33 0.02 89 1009.7
20260507080051 51 345 2.6 7.8 0.00 0.33 0.02 89 1009.8
20260507075538 51 19 2.6 7.8 0.00 0.33 0.02 89 1009.8
20260507075038 51 339 1.7 7.0 0.00 0.33 0.02 89 1009.9
20260507074555 51 330 1.7 7.0 0.00 0.33 0.02 89 1009.9
20260507074043 51 9 1.7 4.3 0.00 0.33 0.02 89 1009.8
20260507073543 51 355 0.9 4.3 0.00 0.33 0.02 89 1009.7
20260507073044 51 5 1.7 4.3 0.00 0.33 0.02 89 1009.8
20260507072543 51 334 0.0 2.6 0.00 0.33 0.02 89 1009.9
20260507072040 51 341 0.9 2.6 0.00 0.33 0.02 89 1010.0
20260507071548 51 317 0.9 2.6 0.00 0.33 0.02 89 1010.0
20260507071043 51 346 0.0 2.6 0.00 0.33 0.02 89 1010.1
20260507070541 51 0 0.9 1.7 0.00 0.33 0.02 89 1010.1
20260507070053 51 295 0.0 3.5 0.00 0.33 0.02 89 1010.2
20260507065541 51 0 0.9 3.5 0.00 0.33 0.02 89 1010.1
20260507065040 51 338 0.0 3.5 0.01 0.33 0.02 89 1010.1
20260507064607 51 0 0.9 3.5 0.01 0.33 0.02 89 1010.1
20260507064041 51 61 0.9 3.5 0.01 0.33 0.02 88 1010.0
20260507063540 51 346 0.0 3.5 0.01 0.33 0.02 88 1010.1
20260507063056 51 0 0.9 3.5 0.01 0.33 0.02 88 1010.1
20260507062540 51 0 0.9 4.3 0.01 0.33 0.02 87 1010.3
20260507062113 51 0 0.9 4.3 0.01 0.33 0.02 87 1010.2
20260507061550 52 0 0.0 3.5 0.01 0.33 0.02 87 1010.2
20260507061041 52 61 0.9 5.2 0.01 0.33 0.02 87 1010.3
20260507060540 52 0 0.9 5.2 0.01 0.33 0.02 87 1010.2
20260507060052 52 327 2.6 5.2 0.01 0.33 0.02 86 1010.2
20260507055542 52 15 1.7 3.5 0.01 0.33 0.02 86 1010.1
20260507055044 52 344 1.7 3.5 0.00 0.32 0.01 86 1010.1
20260507054606 52 0 0.0 3.5 0.00 0.32 0.01 85 1010.1
20260507054042 52 59 0.9 7.0 0.00 0.32 0.01 84 1010.1
20260507053541 52 61 1.7 10.4 0.00 0.32 0.01 84 1010.0
20260507053055 52 318 1.7 10.4 0.00 0.32 0.01 83 1010.1
20260507052545 53 265 4.3 10.4 0.00 0.32 0.01 83 1010.1
20260507052041 53 267 2.6 8.7 0.00 0.32 0.01 85 1010.1
20260507051550 53 68 1.7 4.3 0.00 0.32 0.01 87 1010.1
20260507051038 53 321 0.9 7.0 0.00 0.32 0.01 86 1010.0
20260507050542 53 337 1.7 7.0 0.00 0.32 0.01 86 1009.8
20260507050046 53 343 2.6 7.0 0.01 0.32 0.01 86 1009.9
20260507045542 53 337 1.7 7.0 0.01 0.32 0.01 86 1010.0
20260507045110 53 335 2.6 7.0 0.01 0.32 0.01 85 1010.1
20260507044550 53 304 3.5 6.1 0.01 0.32 0.01 85 1010.1
20260507044041 53 327 1.7 6.1 0.01 0.32 0.01 85 1010.1
20260507043538 53 307 3.5 7.8 0.01 0.32 0.01 85 1010.0
20260507043052 53 342 2.6 9.6 0.01 0.32 0.01 85 1009.9
20260507042540 53 306 5.2 9.6 0.01 0.32 0.01 85 1010.2
20260507042043 53 312 4.3 11.3 0.01 0.32 0.01 84 1009.9
20260507041603 54 306 4.3 11.3 0.01 0.32 0.01 84 1009.9
20260507041045 54 316 5.2 10.4 0.01 0.32 0.01 84 1009.8
20260507040544 54 317 5.2 10.4 0.01 0.32 0.01 84 1009.9
20260507040058 55 300 3.5 8.7 0.00 0.31 0.00 83 1009.7
20260507035541 55 340 1.7 5.2 0.00 0.31 0.31 84 1009.7
20260507035041 55 5 1.7 8.7 0.00 0.31 0.31 84 1009.5
20260507034556 55 265 2.6 8.7 0.00 0.31 0.31 83 1009.4
20260507034039 55 344 2.6 8.7 0.00 0.31 0.31 84 1009.6
20260507033542 55 323 2.6 12.2 0.00 0.31 0.31 84 1009.7
20260507033047 55 344 5.2 12.2 0.00 0.31 0.31 84 1009.7
20260507032543 56 328 7.0 12.2 0.00 0.31 0.31 83 1009.7
20260507032040 56 302 6.1 10.4 0.00 0.31 0.31 82 1009.6
20260507031547 56 339 7.0 10.4 0.00 0.31 0.31 81 1009.8
20260507031041 56 329 1.7 8.7 0.00 0.31 0.31 82 1009.9
20260507030543 56 355 2.6 9.6 0.00 0.31 0.31 81 1009.6
20260507030101 57 338 4.3 9.6 0.00 0.31 0.31 81 1009.3
20260507025540 57 332 5.2 13.9 0.00 0.31 0.31 81 1009.2
20260507025042 57 312 7.0 13.9 0.00 0.31 0.31 80 1009.0
20260507024557 57 299 6.1 10.4 0.00 0.31 0.31 80 1009.1
20260507024041 57 314 6.1 10.4 0.00 0.31 0.31 80 1009.4
20260507023543 58 303 4.3 10.4 0.00 0.31 0.31 80 1009.5
20260507023110 58 337 1.7 7.8 0.00 0.31 0.31 80 1009.4
20260507022543 58 319 2.6 9.6 0.00 0.31 0.31 79 1009.3
20260507022040 58 349 3.5 10.4 0.00 0.31 0.31 79 1009.4
20260507021552 58 316 4.3 10.4 0.00 0.31 0.31 79 1009.2
20260507021040 58 258 5.2 10.4 0.00 0.31 0.31 79 1009.2
20260507020543 58 355 5.2 13.0 0.00 0.31 0.31 80 1009.1
20260507020048 58 312 6.1 13.0 0.00 0.31 0.31 81 1009.2
20260507015541 58 339 5.2 9.6 0.01 0.31 0.31 81 1009.2
20260507015040 58 360 4.3 9.6 0.02 0.31 0.31 82 1009.2
20260507014601 58 313 4.3 9.6 0.02 0.31 0.31 83 1009.2
20260507014043 59 328 3.5 7.8 0.03 0.31 0.31 83 1009.2
20260507013539 59 341 3.5 7.0 0.03 0.31 0.31 84 1009.2
20260507013109 59 286 1.7 8.7 0.03 0.31 0.31 84 1009.2
20260507012541 59 15 2.6 8.7 0.03 0.31 0.31 84 1009.1
20260507012041 59 350 3.5 8.7 0.03 0.31 0.31 85 1009.4
20260507011558 59 319 3.5 8.7 0.04 0.31 0.31 86 1009.3
20260507011040 60 360 3.5 7.0 0.04 0.31 0.31 87 1009.3
20260507010540 60 338 1.7 6.1 0.04 0.31 0.31 88 1009.4
20260507010049 60 337 2.6 7.8 0.04 0.31 0.31 87 1009.2
20260507005540 60 306 3.5 8.7 0.03 0.30 0.30 87 1009.2
20260507005041 60 301 3.5 8.7 0.02 0.29 0.29 86 1009.2
20260507004550 61 281 4.3 8.7 0.02 0.29 0.29 86 1009.2
20260507004040 61 306 4.3 8.7 0.01 0.28 0.28 85 1009.2
20260507003541 61 304 4.3 9.6 0.01 0.28 0.28 86 1008.9
20260507003050 61 283 5.2 9.6 0.01 0.28 0.28 86 1008.8
20260507002542 62 302 4.3 9.6 0.01 0.28 0.28 86 1008.7
20260507002042 62 311 3.5 9.6 0.01 0.28 0.28 86 1008.8
20260507001607 62 290 2.6 7.0 0.00 0.27 0.27 87 1008.9
20260507001045 63 315 3.5 7.0 0.00 0.27 0.27 87 1008.7
20260507000541 62 301 1.7 7.8 0.00 0.27 0.27 88 1008.4
20260507000052 62 292 2.6 8.7 0.00 0.27 0.27 88 1008.2
20260506235544 63 327 4.3 8.7 0.00 0.27 0.27 89 1008.0
20260506235040 64 313 6.1 8.7 0.00 0.27 0.27 89 1007.8
20260506234552 64 290 2.6 5.2 0.00 0.27 0.27 88 1007.6
20260506234045 64 315 0.9 1.7 0.00 0.27 0.27 88 1007.8
20260506233542 64 0 0.0 1.7 0.00 0.27 0.27 87 1007.7
20260506233049 64 0 0.0 1.7 0.00 0.27 0.27 87 1007.7
20260506232543 64 0 0.0 1.7 0.00 0.27 0.27 87 1007.6
20260506232041 64 242 0.0 1.7 0.00 0.27 0.27 86 1007.4
20260506231551 64 0 0.0 1.7 0.00 0.27 0.27 86 1007.5
20260506231041 65 0 0.0 1.7 0.00 0.27 0.27 86 1007.4
20260506230540 65 250 0.0 1.7 0.00 0.27 0.27 86 1007.4
20260506230044 65 0 0.0 2.6 0.00 0.27 0.27 86 1007.4
20260506225541 65 257 0.0 2.6 0.00 0.27 0.27 86 1007.4
20260506225041 65 259 0.0 2.6 0.00 0.27 0.27 86 1007.4
20260506224549 65 0 0.0 2.6 0.00 0.27 0.27 86 1007.4
20260506224041 65 231 0.0 2.6 0.00 0.27 0.27 86 1007.5
20260506223542 65 0 0.0 2.6 0.00 0.27 0.27 86 1007.4
20260506223104 65 0 0.9 2.6 0.00 0.27 0.27 86 1007.3
20260506222541 65 227 0.0 2.6 0.00 0.27 0.27 86 1007.4
20260506222042 65 223 0.9 2.6 0.00 0.27 0.27 86 1007.5
20260506221555 65 229 0.9 2.6 0.00 0.27 0.27 86 1007.4
20260506221041 65 226 0.9 2.6 0.00 0.27 0.27 85 1007.3
20260506220541 65 227 0.9 7.0 0.00 0.27 0.27 85 1007.3
20260506220049 65 215 1.7 7.0 0.00 0.27 0.27 85 1007.1
20260506215540 65 210 1.7 4.3 0.00 0.27 0.27 84 1007.2
20260506215041 65 225 0.9 4.3 0.00 0.27 0.27 84 1007.2
20260506214547 65 158 0.9 7.0 0.00 0.27 0.27 84 1007.2
20260506214040 65 229 0.9 7.0 0.00 0.27 0.27 84 1007.1
20260506213545 65 225 0.9 4.3 0.00 0.27 0.27 84 1007.0
20260506213054 65 225 0.9 4.3 0.00 0.27 0.27 84 1006.9
20260506212541 65 0 0.9 4.3 0.00 0.27 0.27 83 1006.9
20260506212044 65 215 0.9 3.5 0.00 0.27 0.27 83 1006.8
20260506211552 65 219 0.9 3.5 0.00 0.27 0.27 84 1006.7
20260506211041 65 0 0.9 4.3 0.00 0.27 0.27 83 1006.7
20260506210541 65 203 1.7 4.3 0.00 0.27 0.27 83 1006.6
20260506210050 65 219 0.9 4.3 0.00 0.27 0.27 84 1006.5
20260506205541 65 228 0.9 5.2 0.00 0.27 0.27 83 1006.5
20260506205042 65 203 1.7 5.2 0.00 0.27 0.27 83 1006.5
20260506204555 65 234 0.9 5.2 0.00 0.27 0.27 83 1006.5
20260506204040 65 225 0.9 5.2 0.00 0.27 0.27 83 1006.6
20260506203541 66 229 1.7 5.2 0.00 0.27 0.27 82 1006.5
20260506203055 66 277 1.7 4.3 0.00 0.27 0.27 82 1006.6
20260506202544 66 231 0.9 4.3 0.00 0.27 0.27 82 1006.6
20260506202041 66 233 0.9 4.3 0.00 0.27 0.27 82 1006.4
20260506201553 66 202 0.9 4.3 0.00 0.27 0.27 82 1006.4
20260506201045 66 230 1.7 4.3 0.00 0.27 0.27 81 1006.5
20260506200540 66 237 1.7 5.2 0.00 0.27 0.27 81 1006.6
20260506200120 67 225 2.6 5.2 0.00 0.27 0.27 80 1006.6
20260506195541 67 231 1.7 5.2 0.00 0.27 0.27 80 1006.5
20260506195041 67 126 1.7 5.2 0.00 0.27 0.27 80 1006.5
20260506194544 67 271 1.7 6.1 0.00 0.27 0.27 81 1006.5
20260506194041 67 215 2.6 7.0 0.00 0.27 0.27 81 1006.4
20260506193545 67 234 2.6 7.0 0.00 0.27 0.27 81 1006.4
20260506193050 67 207 2.6 6.1 0.00 0.27 0.27 80 1006.4
20260506192540 66 254 2.6 7.0 0.00 0.27 0.27 82 1006.5
20260506192042 66 240 1.7 7.0 0.00 0.27 0.27 83 1006.6
20260506191548 65 211 2.6 9.6 0.00 0.27 0.27 83 1006.7
20260506191041 65 239 2.6 9.6 0.00 0.27 0.27 84 1006.7
20260506190542 65 221 1.7 6.1 0.00 0.27 0.27 84 1006.7
20260506190050 65 213 1.7 7.0 0.00 0.27 0.27 84 1006.7
20260506185546 64 230 2.6 7.8 0.00 0.27 0.27 84 1006.7
20260506185044 65 242 1.7 7.8 0.00 0.27 0.27 84 1006.8
20260506184553 65 246 1.7 9.6 0.00 0.27 0.27 84 1006.8
20260506184041 64 221 2.6 11.3 0.00 0.27 0.27 85 1007.0
20260506183541 64 219 2.6 11.3 0.00 0.27 0.27 84 1006.8
20260506183048 64 178 2.6 7.0 0.00 0.27 0.27 84 1007.0
20260506182540 64 164 2.6 10.4 0.00 0.27 0.27 84 1006.9
20260506182041 64 227 3.5 10.4 0.00 0.27 0.27 85 1006.9
20260506181544 64 248 1.7 10.4 0.00 0.27 0.27 85 1006.9
20260506181041 64 238 3.5 10.4 0.00 0.27 0.27 86 1006.9
20260506180543 64 248 3.5 11.3 0.00 0.27 0.27 86 1006.9
20260506180104 63 251 4.3 13.0 0.00 0.27 0.27 87 1007.0
20260506175540 63 232 3.5 13.0 0.00 0.27 0.27 87 1007.1
20260506175041 63 209 2.6 13.0 0.00 0.27 0.27 88 1007.2
20260506174552 62 242 4.3 13.0 0.00 0.27 0.27 89 1007.1
20260506174044 62 218 2.6 11.3 0.00 0.27 0.27 90 1007.2
20260506173541 61 216 3.5 11.3 0.00 0.27 0.27 90 1007.1
20260506173101 61 194 0.9 12.2 0.00 0.27 0.27 90 1007.2
20260506172541 61 216 2.6 12.2 0.00 0.27 0.27 90 1007.2
20260506172041 61 236 2.6 11.3 0.00 0.27 0.27 91 1007.2
20260506171557 60 227 3.5 9.6 0.00 0.27 0.27 91 1007.2
20260506171041 60 171 2.6 7.8 0.00 0.27 0.27 91 1007.2
20260506170541 60 217 2.6 8.7 0.00 0.27 0.27 91 1007.1
20260506170047 60 224 2.6 8.7 0.00 0.27 0.27 91 1007.2
20260506165541 60 228 1.7 12.2 0.00 0.27 0.27 91 1007.2
20260506165041 60 219 3.5 13.0 0.00 0.27 0.27 91 1007.2
20260506164546 60 234 4.3 13.9 0.00 0.27 0.27 92 1007.3
20260506164041 60 214 4.3 13.9 0.00 0.27 0.27 92 1007.2
20260506163541 60 216 3.5 16.5 0.00 0.27 0.27 92 1007.3
20260506163053 60 227 2.6 16.5 0.00 0.27 0.27 92 1007.2
20260506162544 60 257 3.5 16.5 0.00 0.27 0.27 93 1007.0
20260506162043 60 202 3.5 13.9 0.00 0.27 0.27 93 1007.0
20260506161555 60 214 4.3 13.9 0.00 0.27 0.27 93 1007.2
20260506161041 59 212 3.5 14.8 0.01 0.27 0.27 93 1007.3
20260506160544 59 198 3.5 16.5 0.01 0.27 0.27 93 1007.4
20260506160106 59 186 6.1 16.5 0.01 0.27 0.27 93 1007.4
20260506155541 59 209 4.3 15.6 0.01 0.27 0.27 94 1007.4
20260506155041 59 246 5.2 15.6 0.02 0.27 0.27 94 1007.3
20260506154553 59 188 4.3 13.9 0.02 0.27 0.27 94 1007.2
20260506154042 59 207 4.3 13.9 0.05 0.27 0.27 94 1007.1
20260506153541 60 215 4.3 13.0 0.06 0.27 0.27 94 1007.0
20260506153055 59 223 4.3 13.0 0.07 0.27 0.27 94 1007.0
20260506152540 59 209 6.1 13.9 0.07 0.27 0.27 94 1007.2
20260506152041 59 251 4.3 13.9 0.07 0.27 0.27 94 1007.3
20260506151550 59 187 4.3 11.3 0.08 0.26 0.26 94 1007.1
20260506151041 59 180 4.3 13.9 0.09 0.26 0.26 94 1007.0
20260506150541 59 231 5.2 13.9 0.10 0.26 0.26 94 1007.1
20260506150051 59 212 5.2 14.8 0.10 0.26 0.26 94 1007.4
20260506145541 59 180 2.6 14.8 0.11 0.26 0.26 94 1007.8
20260506145041 59 200 1.7 8.7 0.11 0.25 0.25 94 1008.0
20260506144553 59 196 1.7 6.1 0.11 0.25 0.25 94 1008.1
20260506144041 59 250 1.7 9.6 0.08 0.22 0.22 93 1008.1
20260506143541 59 240 2.6 9.6 0.08 0.21 0.21 93 1008.1
20260506143044 59 217 2.6 11.3 0.07 0.20 0.20 94 1008.0
20260506142540 59 221 4.3 14.8 0.09 0.20 0.20 93 1007.9
20260506142040 59 217 4.3 14.8 0.08 0.19 0.19 93 1007.7
20260506141551 59 209 5.2 13.9 0.08 0.18 0.18 93 1007.7
20260506141041 59 217 4.3 13.0 0.08 0.17 0.17 93 1007.8
20260506140541 59 223 3.5 11.3 0.08 0.16 0.16 93 1007.5
20260506140050 59 213 6.1 18.2 0.09 0.16 0.16 93 1007.4
20260506135541 59 221 5.2 18.2 0.09 0.15 0.15 93 1007.4
20260506135041 59 136 6.1 14.8 0.09 0.14 0.14 93 1007.4
20260506134614 59 221 4.3 13.9 0.09 0.14 0.14 93 1007.6
20260506134041 59 204 5.2 13.9 0.10 0.14 0.14 92 1007.6
20260506133541 59 192 5.2 13.9 0.09 0.13 0.13 92 1007.6
20260506133054 59 187 5.2 13.0 0.10 0.13 0.13 92 1007.6
20260506132541 59 205 5.2 13.0 0.09 0.11 0.11 91 1007.7
20260506132042 59 219 5.2 13.0 0.09 0.10 0.10 91 1007.7
20260506131607 59 217 4.3 12.2 0.09 0.10 0.10 91 1007.7
20260506131041 59 204 5.2 12.2 0.09 0.09 0.09 90 1007.9
20260506130541 59 169 4.3 13.0 0.08 0.08 0.08 90 1007.8
20260506130050 59 178 3.5 13.0 0.07 0.07 0.07 89 1007.8
20260506125541 59 219 3.5 11.3 0.06 0.06 0.06 89 1007.8
20260506125041 60 180 3.5 10.4 0.05 0.05 0.05 88 1007.9
20260506124551 60 222 2.6 13.0 0.05 0.05 0.05 88 1007.8
20260506124041 60 178 2.6 13.0 0.04 0.04 0.04 87 1007.8
20260506123541 60 153 3.5 10.4 0.04 0.04 0.04 86 1008.0
20260506123049 60 221 2.6 8.7 0.03 0.03 0.03 86 1008.0
20260506122541 60 211 1.7 8.7 0.02 0.02 0.02 85 1008.0
20260506122042 61 220 2.6 8.7 0.01 0.01 0.01 83 1007.9
20260506121549 61 205 3.5 12.2 0.01 0.01 0.01 82 1008.0